Location: Fort Wayne
(41.1310°N, 85.1290°W)
Time: 07:52:04
(UTC-04:00)

Amateur Radio Satellites - All Passes

Search period start: 24 May 2016 07:22
Search period end: 25 May 2016 07:22
Location: Fort Wayne, 41.1310°N, 85.1290°W

Satellite Date Start Highest point End Downlink Frequencies (MHz)
Time Altitude Azimuth
Cosmos 2504 24 May 07:22:55 07:30:34 42° 272° (W) 07:38:35 435.465 / 435.565
RS-15 24 May 07:26:46 07:28:52 11° 268° (W) 07:30:58 29.354- 29.394
CUTE-I 24 May 07:34:06 07:39:08 41° 98° (E) 07:44:09 437.470
STRAND 1 24 May 07:50:25 07:55:26 64° 73° (ENE) 08:00:30 437.568
NOAA 18 24 May 07:51:47 07:57:16 71° 103° (ESE) 08:02:44 137.9125
GOMX 1 24 May 07:52:31 07:56:49 32° 95° (E) 08:00:51 467.674
PRISM 24 May 08:22:56 08:26:11 23° 67° (ENE) 08:29:28 437.425
Cubesat XI-IV 24 May 08:26:16 08:31:36 69° 287° (WNW) 08:36:55 437.490
LilacSat-2 24 May 08:29:57 08:33:32 42° 287° (WNW) 08:37:06 437.200
HO-68 24 May 08:33:11 08:38:03 19° 91° (E) 08:42:53 435.675
NOAA 15 24 May 08:36:21 08:41:15 38° 292° (WNW) 08:46:06 137.62
AO-7 24 May 08:41:13 08:42:38 10° 319° (NW) 08:44:02 29.400- 29.500
BRITE-PL 24 May 08:45:16 08:50:04 36° 291° (WNW) 08:54:32 437.365/2234.400
AIST 1 24 May 08:47:40 08:50:32 17° 71° (ENE) 08:53:22
AO-85 24 May 08:49:18 08:54:34 47° 308° (NW) 08:59:44 145.980
COMPASS 1 24 May 09:01:06 09:01:50 10° 89° (E) 09:02:33 437.405
DOVE 4 24 May 09:01:17 09:05:47 81° 101° (E) 09:10:02 437.250
AUBIESAT-1 24 May 09:08:48 09:11:23 21° 101° (E) 09:13:56 437.475
M-CUBED/EXP-1 PRIME 24 May 09:11:41 09:14:36 28° 102° (ESE) 09:17:27 437.505
CUTE-I 24 May 09:14:34 09:18:58 26° 295° (WNW) 09:23:21 437.470
CANX-2 24 May 09:29:26 09:33:38 52° 99° (E) 09:37:48 2200.000
GOMX 1 24 May 09:30:49 09:34:45 25° 294° (WNW) 09:38:27 467.674
STRAND 1 24 May 09:32:14 09:35:03 15° 269° (W) 09:37:53 437.568
NOAA 18 24 May 09:33:56 09:37:20 17° 300° (WNW) 09:40:43 137.9125
GONETS M04 24 May 09:35:50 09:43:52 39° 72° (ENE) 09:51:47
SEEDS 24 May 09:40:14 09:44:18 42° 98° (E) 09:48:20 437.485
CUBEBUG 2 24 May 09:40:52 09:43:48 18° 93° (E) 09:46:44 437.445
Oscar 11 24 May 09:47:40 09:49:12 12° 90° (E) 09:50:44 145.826/435.025
UNISAT 6 24 May 09:49:38 09:50:33 11° 62° (ENE) 09:51:28 437.425
ZACube-1 24 May 09:54:04 09:55:30 11° 90° (E) 09:56:57 437.345
CUTE 1.7 + AOD 2 24 May 09:57:25 10:01:43 86° 279° (W) 10:06:00 437.475
TIGRISAT 24 May 09:57:36 09:59:24 12° 63° (ENE) 10:01:12 435.000
PRISM 24 May 09:57:44 10:01:20 29° 263° (W) 10:05:00 437.425
CINEMA 3 24 May 10:00:45 10:04:58 76° 284° (WNW) 10:09:05 145.822/145.860
Cosmos 2499 24 May 10:15:42 10:23:41 42° 74° (ENE) 10:31:56 435.465 / 435.565
SO-50 24 May 10:15:56 10:19:57 27° 46° (NE) 10:23:50 436.795
UWE-3 24 May 10:17:10 10:20:55 32° 97° (E) 10:24:42 435.000/436.395/437.385
HO-68 24 May 10:19:16 10:26:26 78° 289° (WNW) 10:33:36 435.675
AIST 1 24 May 10:24:14 10:28:20 40° 268° (W) 10:32:23
ANTELSAT 24 May 10:27:53 10:31:34 27° 69° (ENE) 10:35:12 437.575/2403.000
FUNcube-1 24 May 10:32:26 10:36:06 30° 96° (E) 10:39:50 145.935
COMPASS 1 24 May 10:33:37 10:37:48 65° 284° (WNW) 10:41:57 437.405
AO-85 24 May 10:34:50 10:36:20 11° 328° (NNW) 10:37:49 145.980
AAUSAT CUBESAT 2 24 May 10:40:02 10:44:13 68° 284° (WNW) 10:48:23 437.432
DOVE 4 24 May 10:42:27 10:42:43 10° 301° (WNW) 10:42:59 437.250
AUBIESAT-1 24 May 10:43:22 10:45:50 20° 297° (WNW) 10:48:17 437.475
O/OREOS (USA 219) 24 May 10:43:52 10:47:58 34° 105° (ESE) 10:52:04 437.305
M-CUBED/EXP-1 PRIME 24 May 10:47:03 10:48:58 15° 299° (WNW) 10:50:52 437.505
CANX-2 24 May 11:06:42 11:09:03 15° 296° (WNW) 11:11:24 2200.000
CUBEBUG 2 24 May 11:16:46 11:20:32 34° 289° (WNW) 11:24:19 437.445
SEEDS 24 May 11:16:55 11:19:40 17° 294° (WNW) 11:22:24 437.485
PCSat 24 May 11:20:35 11:25:52 57° 114° (ESE) 11:31:11 145.827
Oscar 11 24 May 11:21:26 11:25:43 61° 286° (WNW) 11:29:59 145.826/435.025
DUCHIFAT 1 24 May 11:21:30 11:24:17 17° 65° (ENE) 11:27:04 145.980
UNISAT 6 24 May 11:22:15 11:26:40 77° 256° (WSW) 11:31:01 437.425
ZACube-1 24 May 11:28:03 11:32:08 57° 286° (WNW) 11:36:16 437.345
TIGRISAT 24 May 11:31:12 11:35:35 65° 258° (WSW) 11:39:54 435.000
GONETS M04 24 May 11:32:37 11:40:45 46° 272° (W) 11:48:51
DELFI C3 24 May 11:42:07 11:46:08 71° 285° (WNW) 11:50:09 145.870
POPSAT HIP 1 24 May 11:53:43 11:57:43 41° 72° (ENE) 12:01:43 437.405
UWE-3 24 May 11:54:07 11:57:12 20° 293° (WNW) 12:00:17 435.000/436.395/437.385
QB50P1 24 May 11:54:28 11:58:30 43° 72° (ENE) 12:02:31 145.935-145.965
JAS-2 24 May 11:54:57 11:59:20 17° 53° (NE) 12:03:50 435.910
QB50P2 24 May 11:55:20 11:59:24 46° 73° (ENE) 12:03:29 145.880/145.840
BUGSAT 1 24 May 11:55:28 11:58:30 19° 66° (ENE) 12:01:31 437.445
SO-50 24 May 11:56:11 12:00:32 39° 244° (WSW) 12:04:45 436.795
POLYITAN 1 24 May 11:57:46 12:01:50 47° 73° (ENE) 12:05:55 437.675
CUSAT 1 24 May 11:59:43 12:03:53 19° 79° (E) 12:08:38 437.405
ANTELSAT 24 May 12:04:29 12:08:13 27° 264° (W) 12:11:55 437.575/2403.000
AISAT 24 May 12:05:07 12:05:46 10° 89° (E) 12:06:24 437.250
Cosmos 2499 24 May 12:08:53 12:16:47 44° 272° (W) 12:24:58 435.465 / 435.565
FUNcube-1 24 May 12:08:59 12:12:13 22° 292° (WNW) 12:15:27 145.935
HO-68 24 May 12:09:05 12:13:01 16° 308° (NW) 12:16:57 435.675
HUMSAT D 24 May 12:09:36 12:13:45 81° 284° (WNW) 12:17:55 437.325/437.525
NANOSAT C BR1 24 May 12:14:54 12:19:07 71° 75° (ENE) 12:23:21 145.865
O/OREOS (USA 219) 24 May 12:23:40 12:27:24 25° 302° (WNW) 12:31:10 437.305
ESTCUBE 1 24 May 12:24:56 12:28:47 26° 95° (E) 12:32:35 437.505/2401.250
UKube-1 24 May 12:32:31 12:34:43 14° 92° (E) 12:36:54 .
BEESAT 3 24 May 12:49:33 12:52:52 27° 114° (ESE) 12:56:15 437.485
DUCHIFAT 1 24 May 12:55:39 12:59:39 41° 261° (W) 13:03:40 145.980
DANDE 24 May 13:00:43 13:04:51 25° 83° (E) 13:09:58 436.750
VELOX 1 24 May 13:02:48 13:07:04 44° 99° (E) 13:11:16 145.980
PCSat 24 May 13:05:17 13:09:37 24° 313° (NW) 13:13:58 145.827
CUBEBUG 1 24 May 13:05:55 13:10:12 50° 100° (E) 13:14:25 437.445
DX 1 24 May 13:10:32 13:14:44 45° 99° (E) 13:18:53 434.975-435.025
50 SAT 24 May 13:17:44 13:21:28 83° 104° (ESE) 13:25:11 437.505
BUGSAT 1 24 May 13:29:43 13:33:37 36° 262° (W) 13:37:31 437.445
POPSAT HIP 1 24 May 13:30:58 13:33:41 16° 268° (W) 13:36:24 437.405
QB50P1 24 May 13:31:52 13:34:28 16° 268° (W) 13:37:06 145.935-145.965
QB50P2 24 May 13:33:03 13:35:27 15° 268° (W) 13:37:52 145.880/145.840
POLYITAN 1 24 May 13:35:34 13:37:54 14° 268° (W) 13:40:13 437.675
JAS-2 24 May 13:35:49 13:42:58 76° 73° (ENE) 13:50:46 435.910
AISAT 24 May 13:38:18 13:42:44 71° 285° (WNW) 13:47:05 437.250
CUSAT 1 24 May 13:39:01 13:44:53 71° 282° (WNW) 13:52:19 437.405
BEESAT 2 24 May 13:44:16 13:48:12 63° 118° (ESE) 13:52:08 435.950
Gurwin Techsat 1B 24 May 13:48:47 13:52:43 22° 63° (ENE) 13:56:39 435.225
SPROUT 24 May 13:50:06 13:54:20 59° 101° (E) 13:58:31 437.525
Oscar 19 24 May 13:54:35 13:59:39 55° 72° (ENE) 14:04:43 437.125/150
ESTCUBE 1 24 May 14:01:36 14:05:33 30° 292° (WNW) 14:09:29 437.505/2401.250
AO-7 24 May 14:03:49 14:07:08 13° 44° (NE) 14:10:26 29.400- 29.500
UKube-1 24 May 14:06:51 14:11:04 52° 287° (WNW) 14:15:15 .
BEESAT 3 24 May 14:27:07 14:30:31 27° 311° (NW) 14:33:56 437.485
TISAT 1 24 May 14:28:14 14:32:13 42° 99° (E) 14:36:09 437.305
ITAMSAT 1 24 May 14:29:37 14:33:19 20° 63° (ENE) 14:37:03 435.822/435.867
VELOX 1 24 May 14:40:12 14:43:11 18° 295° (WNW) 14:46:09 145.980
DANDE 24 May 14:42:19 14:47:10 43° 289° (WNW) 14:53:34 436.750
CUBEBUG 1 24 May 14:43:26 14:46:04 16° 296° (WNW) 14:48:41 437.445
DX 1 24 May 14:47:43 14:50:34 17° 296° (WNW) 14:53:24 434.975-435.025
Cosmos 2491 24 May 14:50:48 14:56:16 18° 61° (ENE) 15:01:42 435.465 / 435.565
SWISSCUBE 24 May 15:01:02 15:04:36 20° 94° (E) 15:08:10 437.505
ITUPSAT 1 24 May 15:05:12 15:08:43 20° 93° (E) 15:12:14 437.325
AIST 2 24 May 15:23:20 15:27:15 44° 117° (ESE) 15:31:12 435.215
JAS-2 24 May 15:23:29 15:28:45 21° 272° (W) 15:34:19 435.910
BEESAT 2 24 May 15:24:05 15:26:26 15° 318° (NW) 15:28:47 435.950
CUSAT 1 24 May 15:25:38 15:28:44 13° 306° (NW) 15:32:05 437.405
Gurwin Techsat 1B 24 May 15:27:09 15:32:17 51° 260° (W) 15:37:28 435.225
SPROUT 24 May 15:27:52 15:29:46 13° 297° (WNW) 15:31:41 437.525
BEESAT 24 May 15:30:34 15:35:00 36° 98° (E) 15:39:24 436.000
Oscar 19 24 May 15:35:47 15:39:17 18° 268° (W) 15:42:49 437.125/150
AO-85 24 May 15:41:50 15:45:34 22° 43° (NE) 15:49:04 145.980
AO-7 24 May 15:50:05 15:58:05 56° 65° (ENE) 16:06:08 29.400- 29.500
TISAT 1 24 May 16:04:52 16:07:32 17° 295° (WNW) 16:10:11 437.305
ITAMSAT 1 24 May 16:07:22 16:12:23 52° 260° (W) 16:17:27 435.822/435.867
HORYU 2 24 May 16:15:26 16:17:12 12° 61° (ENE) 16:18:57 437.375
SWISSCUBE 24 May 16:38:03 16:42:34 42° 290° (WNW) 16:47:04 437.505
ITUPSAT 1 24 May 16:42:12 16:46:44 43° 290° (WNW) 16:51:16 437.325
Cosmos 2491 24 May 16:45:44 16:54:33 84° 82° (E) 17:03:17 435.465 / 435.565
YUBILEINY 24 May 16:47:39 16:55:25 38° 86° (E) 17:03:11 435.215
AIST 2 24 May 17:02:51 17:05:57 20° 315° (NW) 17:09:04 435.215
BEESAT 24 May 17:08:45 17:12:34 24° 294° (WNW) 17:16:24 436.000
MOZHAYETS 4 24 May 17:13:38 17:18:00 41° 98° (E) 17:22:22
RS-15 24 May 17:21:03 17:29:29 25° 100° (E) 17:38:12 29.354- 29.394
AO-85 24 May 17:21:53 17:26:21 47° 244° (WSW) 17:30:24 145.980
KKS-1 24 May 17:24:15 17:28:41 72° 102° (ESE) 17:33:05 437.445
NOAA 18 24 May 17:39:53 17:43:33 19° 61° (ENE) 17:47:14 137.9125
AO-7 24 May 17:43:54 17:51:08 33° 263° (W) 17:58:28 29.400- 29.500
HORYU 2 24 May 17:48:46 17:53:11 69° 259° (WSW) 17:57:36 437.375
Cosmos 2504 24 May 18:09:13 18:15:19 31° 85° (E) 18:21:39 435.465 / 435.565
Cubesat XI-IV 24 May 18:09:33 18:13:51 26° 65° (ENE) 18:18:09 437.490
STARS 24 May 18:09:44 18:14:06 72° 285° (WNW) 18:18:25 437.465
BRITE-PL 24 May 18:16:36 18:21:33 33° 68° (ENE) 18:26:35 437.365/2234.400
NOAA 15 24 May 18:16:42 18:21:41 43° 69° (ENE) 18:26:41 137.62
CUBESAT XI-V 24 May 18:29:27 18:33:36 30° 96° (E) 18:37:43 437.345
DOVE 4 24 May 18:32:29 18:33:41 11° 60° (ENE) 18:34:53 437.250
YUBILEINY 24 May 18:43:45 18:52:00 46° 285° (WNW) 19:00:19 435.215
Cosmos 2491 24 May 18:44:32 18:50:12 19° 282° (WNW) 18:55:52 435.465 / 435.565
MOZHAYETS 4 24 May 18:51:29 18:54:53 21° 294° (WNW) 18:58:16
CUTE-I 24 May 18:55:48 19:01:02 66° 73° (ENE) 19:06:19 437.470
GOMX 1 24 May 18:59:11 19:04:16 39° 70° (ENE) 19:09:17 467.674
KKS-1 24 May 19:03:02 19:04:39 12° 299° (WNW) 19:06:16 437.445
HO-68 24 May 19:03:39 19:07:38 16° 53° (NE) 19:11:37 435.675
LilacSat-2 24 May 19:11:18 19:15:07 87° 76° (ENE) 19:18:56 437.200
NOAA 18 24 May 19:18:17 19:23:42 63° 258° (WSW) 19:29:07 137.9125
CINEMA 3 24 May 19:28:43 19:29:45 11° 62° (ENE) 19:30:48 145.822/145.860
RS-15 24 May 19:28:58 19:40:20 85° 303° (WNW) 19:52:25 29.354- 29.394
Cubesat XI-IV 24 May 19:48:41 19:53:40 42° 261° (W) 19:58:42 437.490
AUBIESAT-1 24 May 19:54:05 19:57:53 34° 67° (ENE) 20:01:28 437.475
BRITE-PL 24 May 19:54:47 19:59:52 36° 264° (W) 20:05:07 437.365/2234.400
M-CUBED/EXP-1 PRIME 24 May 19:57:20 20:01:27 46° 68° (ENE) 20:05:18 437.505
NOAA 15 24 May 19:57:22 20:01:36 24° 266° (W) 20:05:52 137.62
Cosmos 2504 24 May 20:01:31 20:08:21 46° 285° (WNW) 20:15:32 435.465 / 435.565
STRAND 1 24 May 20:01:42 20:05:38 22° 94° (E) 20:09:33 437.568
DOVE 4 24 May 20:05:18 20:10:36 80° 75° (ENE) 20:15:43 437.250
CUBESAT XI-V 24 May 20:06:53 20:10:53 28° 292° (WNW) 20:14:53 437.345
PCSat 24 May 20:08:30 20:13:43 45° 55° (NE) 20:18:53 145.827
CANX-2 24 May 20:22:09 20:25:58 35° 71° (ENE) 20:29:50 2200.000
SEEDS 24 May 20:32:03 20:35:39 29° 70° (ENE) 20:39:16 437.485
GOMX 1 24 May 20:37:41 20:42:21 28° 266° (W) 20:47:02 467.674
CUTE-I 24 May 20:38:32 20:41:33 15° 269° (W) 20:44:35 437.470
CUBEBUG 2 24 May 20:39:18 20:42:12 17° 66° (ENE) 20:45:01 437.445
HO-68 24 May 20:47:06 20:54:14 79° 72° (ENE) 21:01:24 435.675
CUTE 1.7 + AOD 2 24 May 20:49:42 20:53:51 64° 75° (ENE) 20:58:02 437.475
ZACube-1 24 May 20:51:47 20:51:57 10° 62° (ENE) 20:52:07 437.345
O/OREOS (USA 219) 24 May 20:53:28 20:57:56 64° 66° (ENE) 21:02:21 437.305
CINEMA 3 24 May 21:01:25 21:06:15 87° 252° (WSW) 21:10:55 145.822/145.860
BEESAT 3 24 May 21:06:54 21:09:45 19° 45° (NE) 21:12:36 437.485
UWE-3 24 May 21:14:13 21:17:52 27° 70° (ENE) 21:21:28 435.000/436.395/437.385
COMPASS 1 24 May 21:23:53 21:28:00 82° 74° (ENE) 21:32:10 437.405
FUNcube-1 24 May 21:28:11 21:31:36 24° 69° (ENE) 21:34:58 145.935
AUBIESAT-1 24 May 21:29:16 21:32:23 20° 259° (W) 21:35:23 437.475
AAUSAT CUBESAT 2 24 May 21:29:48 21:33:54 76° 75° (ENE) 21:38:03 437.432
M-CUBED/EXP-1 PRIME 24 May 21:33:32 21:36:07 15° 261° (W) 21:38:37 437.505
PRISM 24 May 21:38:54 21:42:45 35° 98° (E) 21:46:35 437.425
STRAND 1 24 May 21:40:06 21:44:59 45° 290° (WNW) 21:49:51 437.568
RS-15 24 May 21:44:42 21:54:47 32° 330° (NNW) 22:05:20 29.354- 29.394
DOVE 4 24 May 21:46:39 21:48:45 12° 271° (W) 21:50:51 437.250
PCSat 24 May 21:52:26 21:56:51 26° 252° (WSW) 22:01:15 145.827
CANX-2 24 May 21:58:59 22:01:57 19° 267° (W) 22:04:56 2200.000
BEESAT 2 24 May 22:02:30 22:06:13 36° 51° (NE) 22:09:55 435.950
SEEDS 24 May 22:08:04 22:11:21 22° 266° (W) 22:14:40 437.485
CUBEBUG 2 24 May 22:14:15 22:18:30 44° 261° (W) 22:22:39 437.445
Oscar 11 24 May 22:15:39 22:19:57 82° 258° (WSW) 22:24:17 145.826/435.025
ZACube-1 24 May 22:23:23 22:27:39 76° 258° (WSW) 22:31:51 437.345
DELFI C3 24 May 22:27:40 22:31:34 63° 75° (ENE) 22:35:30 145.870
CUTE 1.7 + AOD 2 24 May 22:29:31 22:30:07 10° 271° (W) 22:30:42 437.475
CUSAT 1 24 May 22:33:20 22:38:40 19° 59° (ENE) 22:43:35 437.405
O/OREOS (USA 219) 24 May 22:35:13 22:36:43 12° 262° (W) 22:38:13 437.305
GONETS M04 24 May 22:36:40 22:44:50 45° 88° (E) 22:52:59
HO-68 24 May 22:37:57 22:42:39 19° 269° (W) 22:47:23 435.675
BEESAT 3 24 May 22:43:53 22:47:40 44° 243° (WSW) 22:51:25 437.485
UWE-3 24 May 22:50:40 22:54:17 25° 264° (W) 22:57:51 435.000/436.395/437.385
AIST 1 24 May 22:52:43 22:57:05 70° 278° (W) 23:01:31
Cosmos 2499 24 May 22:53:45 22:59:45 29° 84° (E) 23:06:02 435.465 / 435.565
HUMSAT D 24 May 23:00:33 23:04:36 66° 75° (ENE) 23:08:39 437.325/437.525
AISAT 24 May 23:02:49 23:03:49 11° 60° (ENE) 23:04:48 437.250
FUNcube-1 24 May 23:04:04 23:07:44 28° 264° (W) 23:11:23 145.935
ISS 24 May 23:14:06 23:17:09 38° 137° (SE) 23:20:12 145.825
UNISAT 6 24 May 23:14:35 23:17:50 21° 94° (E) 23:21:06 437.425
PRISM 24 May 23:14:48 23:17:49 20° 294° (WNW) 23:20:49 437.425
TIGRISAT 24 May 23:23:06 23:26:36 24° 95° (E) 23:30:06 435.000
ESTCUBE 1 24 May 23:24:33 23:28:12 25° 67° (ENE) 23:31:53 437.505/2401.250
UKube-1 24 May 23:27:44 23:29:39 13° 62° (ENE) 23:31:34 .
PHONESAT 2.4 24 May 23:28:07 23:29:07 11° 147° (SSE) 23:30:07 2401.200-2431.200
DANDE 24 May 23:37:39 23:44:56 32° 67° (ENE) 23:51:54 436.750
BEESAT 2 24 May 23:40:55 23:43:50 20° 248° (WSW) 23:46:43 435.950
AIST 2 24 May 23:44:45 23:48:28 30° 50° (NE) 23:52:08 435.215
ANTELSAT 24 May 23:55:11 23:59:25 59° 100° (E) 00:03:42 437.575/2403.000
50 SAT 24 May 23:55:59 23:59:18 34° 72° (ENE) 00:02:38 437.505
VELOX 1 24 May 23:59:51 00:04:00 39° 71° (ENE) 00:08:11 145.980
CUBEBUG 1 25 May 00:01:32 00:05:42 41° 71° (ENE) 00:09:53 437.445
NANOSAT C BR1 25 May 00:01:51 00:03:01 11° 90° (E) 00:04:12 145.865
RS-15 25 May 00:03:43 00:12:38 23° 5° (N) 00:21:43 29.354- 29.394
DX 1 25 May 00:05:48 00:09:52 39° 70° (ENE) 00:13:57 434.975-435.025
CUSAT 1 25 May 00:14:02 00:22:04 88° 86° (E) 00:28:50 437.405
GONETS M04 25 May 00:33:33 00:41:41 41° 287° (WNW) 00:49:50
AISAT 25 May 00:35:08 00:39:37 82° 256° (WSW) 00:44:07 437.250
DUCHIFAT 1 25 May 00:39:55 00:43:34 29° 96° (E) 00:47:12 145.980
SPROUT 25 May 00:43:24 00:47:29 44° 72° (ENE) 00:51:35 437.525
Cosmos 2499 25 May 00:45:30 00:52:25 49° 285° (WNW) 00:59:48 435.465 / 435.565
JAS-2 25 May 00:50:11 00:52:18 11° 82° (E) 00:54:23 435.910
ISS 25 May 00:50:44 00:53:38 29° 335° (NNW) 00:56:33 145.825
UNISAT 6 25 May 00:50:46 00:54:38 33° 289° (WNW) 00:58:30 437.425
TIGRISAT 25 May 00:59:36 01:03:16 28° 291° (WNW) 01:06:57 435.000
ESTCUBE 1 25 May 01:00:50 01:04:51 32° 263° (W) 01:08:55 437.505/2401.250
UKube-1 25 May 01:00:52 01:05:09 63° 258° (WSW) 01:09:29 .
PHONESAT 2.4 25 May 01:02:23 01:05:22 42° 162° (SSE) 01:08:22 2401.200-2431.200
BUGSAT 1 25 May 01:11:38 01:15:13 29° 97° (E) 01:18:44 437.445
POPSAT HIP 1 25 May 01:13:55 01:18:08 80° 104° (ESE) 01:22:19 437.405
QB50P1 25 May 01:14:38 01:18:52 83° 105° (ESE) 01:23:03 145.935-145.965
QB50P2 25 May 01:15:47 01:20:00 90° 88° (E) 01:24:12 145.880/145.840
POLYITAN 1 25 May 01:18:13 01:22:26 88° 287° (WNW) 01:26:38 437.675
TISAT 1 25 May 01:19:47 01:23:32 31° 70° (ENE) 01:27:17 437.305
DANDE 25 May 01:20:01 01:28:19 63° 267° (W) 01:36:02 436.750
AIST 2 25 May 01:23:22 01:26:51 26° 247° (WSW) 01:30:19 435.215
50 SAT 25 May 01:31:12 01:33:10 14° 267° (W) 01:35:09 437.505
ANTELSAT 25 May 01:33:41 01:35:39 13° 297° (WNW) 01:37:39 437.575/2403.000
NANOSAT C BR1 25 May 01:35:01 01:39:09 60° 286° (WNW) 01:43:15 145.865
VELOX 1 25 May 01:37:24 01:40:36 19° 267° (W) 01:43:50 145.980
CUBEBUG 1 25 May 01:39:06 01:42:09 18° 267° (W) 01:45:14 437.445
DX 1 25 May 01:43:05 01:46:12 19° 266° (W) 01:49:19 434.975-435.025
CUSAT 1 25 May 01:58:09 02:02:53 18° 282° (WNW) 02:07:16 437.405
Oscar 19 25 May 02:07:11 02:10:49 19° 92° (E) 02:14:25 437.125/150
SWISSCUBE 25 May 02:07:31 02:11:17 24° 66° (ENE) 02:15:05 437.505
SO-50 25 May 02:09:15 02:14:06 68° 120° (ESE) 02:18:59 436.795
ITUPSAT 1 25 May 02:11:58 02:15:43 24° 66° (ENE) 02:19:30 437.325
DUCHIFAT 1 25 May 02:15:49 02:19:08 23° 292° (WNW) 02:22:25 145.980
RS-15 25 May 02:18:26 02:29:49 41° 39° (NE) 02:41:15 29.354- 29.394
SPROUT 25 May 02:21:00 02:23:39 16° 268° (W) 02:26:17 437.525
ISS 25 May 02:29:09 02:30:52 14° 354° (N) 02:32:37 145.825
JAS-2 25 May 02:31:09 02:38:46 71° 101° (ESE) 02:45:34 435.910
BEESAT 25 May 02:36:48 02:41:14 42° 71° (ENE) 02:45:43 436.000
PHONESAT 2.4 25 May 02:38:53 02:42:01 81° 179° (S) 02:45:09 2401.200-2431.200
BUGSAT 1 25 May 02:47:21 02:50:25 21° 293° (WNW) 02:53:28 437.445
TISAT 1 25 May 02:55:57 02:59:13 22° 265° (W) 03:02:30 437.305
YUBILEINY 25 May 02:58:10 03:03:54 19° 62° (ENE) 03:09:38 435.215
DANDE 25 May 03:06:36 03:09:30 12° 285° (WNW) 03:12:21 436.750
STARS 25 May 03:34:01 03:34:36 10° 60° (ENE) 03:35:12 437.465
Gurwin Techsat 1B 25 May 03:43:09 03:48:27 65° 102° (ESE) 03:53:43 435.225
SWISSCUBE 25 May 03:44:31 03:48:53 36° 262° (W) 03:53:17 437.505
Oscar 19 25 May 03:45:25 03:50:25 51° 289° (WNW) 03:55:23 437.125/150
ITUPSAT 1 25 May 03:48:57 03:53:20 37° 262° (W) 03:57:46 437.325
SO-50 25 May 03:51:28 03:55:04 20° 318° (NW) 03:58:39 436.795
Cosmos 2491 25 May 03:53:34 03:59:17 19° 78° (ENE) 04:05:00 435.465 / 435.565
AO-7 25 May 03:53:41 03:58:28 16° 89° (E) 04:03:13 29.400- 29.500
Cosmos 2504 25 May 04:02:03 04:05:17 12° 58° (ENE) 04:08:33 435.465 / 435.565
ISS 25 May 04:06:03 04:08:19 17° 15° (NNE) 04:10:34 145.825
MOZHAYETS 4 25 May 04:15:23 04:19:34 38° 71° (ENE) 04:23:49
PHONESAT 2.4 25 May 04:15:38 04:18:42 50° 195° (SSW) 04:21:44 2401.200-2431.200
BEESAT 25 May 04:15:42 04:19:12 20° 266° (W) 04:22:43 436.000
JAS-2 25 May 04:17:08 04:22:58 25° 302° (WNW) 04:28:26 435.910
ITAMSAT 1 25 May 04:20:01 04:25:09 55° 101° (E) 04:30:16 435.822/435.867
KKS-1 25 May 04:21:53 04:26:18 64° 74° (ENE) 04:30:44 437.445
RS-15 25 May 04:31:07 04:43:22 73° 244° (WSW) 04:55:31 29.354- 29.394
YUBILEINY 25 May 04:53:12 05:02:01 88° 86° (E) 05:10:49 435.215
STARS 25 May 05:05:52 05:10:17 83° 257° (WSW) 05:14:43 437.465
Gurwin Techsat 1B 25 May 05:24:28 05:27:51 17° 299° (WNW) 05:31:14 435.225
CUBESAT XI-V 25 May 05:32:42 05:36:42 29° 68° (ENE) 05:40:44 437.345
HORYU 2 25 May 05:40:21 05:43:48 22° 95° (E) 05:47:13 437.375
ISS 25 May 05:42:00 05:45:16 66° 36° (NE) 05:48:29 145.825
AO-7 25 May 05:43:55 05:52:20 84° 108° (ESE) 06:00:44 29.400- 29.500
Cosmos 2491 25 May 05:46:03 05:54:56 85° 278° (W) 06:03:49 435.465 / 435.565
Cosmos 2504 25 May 05:52:03 06:00:20 64° 79° (E) 06:09:03 435.465 / 435.565
PHONESAT 2.4 25 May 05:53:14 05:55:01 14° 210° (SSW) 05:56:47 2401.200-2431.200
MOZHAYETS 4 25 May 05:53:29 05:56:52 20° 267° (W) 06:00:16
ITAMSAT 1 25 May 06:00:33 06:04:12 20° 297° (WNW) 06:07:50 435.822/435.867
KKS-1 25 May 06:01:39 06:03:17 12° 270° (W) 06:04:55 437.445
NOAA 15 25 May 06:33:09 06:36:17 16° 91° (E) 06:39:24 137.62
RS-15 25 May 06:46:51 06:53:36 17° 264° (W) 07:00:21 29.354- 29.394
YUBILEINY 25 May 06:52:10 06:57:34 18° 283° (WNW) 07:02:58 435.215
CUBESAT XI-V 25 May 07:10:00 07:14:01 28° 265° (W) 07:18:04 437.345
